| time (UTC) | temp C | wind direction | speed KPH | gust KPH | rain 1hr cm | rain 24hr cm | rain mn cm | humidity % | barometer mb |
| 20260502130555 | 11 | 12 | 12.9 | 20.9 | 0.00 | 0.00 | 0.00 | 89 | 1020.5 |
| 20260502123556 | 10 | 328 | 4.8 | 11.3 | 0.00 | 0.00 | 0.00 | 92 | 1020.3 |
| 20260502123100 | 10 | 330 | 6.4 | 9.7 | 0.00 | 0.00 | 0.00 | 93 | 1020.3 |
| 20260502122559 | 10 | 354 | 6.4 | 9.7 | 0.00 | 0.00 | 0.00 | 93 | 1020.3 |
| 20260502122057 | 10 | 346 | 4.8 | 9.7 | 0.00 | 0.00 | 0.00 | 93 | 1020.3 |
| 20260502121555 | 10 | 338 | 6.4 | 11.3 | 0.00 | 0.00 | 0.00 | 93 | 1020.1 |
| 20260502121057 | 10 | 355 | 6.4 | 11.3 | 0.00 | 0.00 | 0.00 | 93 | 1020.0 |
| 20260502120556 | 10 | 344 | 6.4 | 8.0 | 0.00 | 0.00 | 0.00 | 94 | 1020.0 |
| 20260502120105 | 10 | 326 | 4.8 | 8.0 | 0.00 | 0.00 | 0.00 | 94 | 1020.0 |
| 20260502115559 | 9 | 332 | 4.8 | 9.7 | 0.00 | 0.00 | 0.00 | 94 | 1019.9 |
| 20260502115100 | 9 | 325 | 4.8 | 9.7 | 0.00 | 0.00 | 0.00 | 94 | 1019.9 |
| 20260502114558 | 9 | 343 | 6.4 | 9.7 | 0.00 | 0.00 | 0.00 | 94 | 1019.8 |
| 20260502114056 | 9 | 358 | 4.8 | 8.0 | 0.00 | 0.00 | 0.00 | 94 | 1019.8 |
| 20260502113600 | 9 | 333 | 4.8 | 6.4 | 0.00 | 0.00 | 0.00 | 94 | 1019.9 |
| 20260502113057 | 9 | 323 | 3.2 | 6.4 | 0.00 | 0.00 | 0.00 | 94 | 1019.9 |
| 20260502112555 | 10 | 343 | 3.2 | 6.4 | 0.00 | 0.00 | 0.00 | 94 | 1019.8 |
| 20260502112055 | 10 | 319 | 3.2 | 6.4 | 0.00 | 0.00 | 0.00 | 94 | 1019.7 |
| 20260502111628 | 10 | 326 | 3.2 | 4.8 | 0.00 | 0.00 | 0.00 | 93 | 1019.6 |
| 20260502111059 | 10 | 325 | 1.6 | 6.4 | 0.00 | 0.00 | 0.00 | 93 | 1019.5 |
| 20260502110556 | 10 | 325 | 3.2 | 6.4 | 0.00 | 0.00 | 0.00 | 93 | 1019.5 |
| 20260502110057 | 10 | 330 | 3.2 | 8.0 | 0.00 | 0.00 | 0.00 | 93 | 1019.4 |
| 20260502105558 | 10 | 15 | 3.2 | 9.7 | 0.00 | 0.00 | 0.00 | 93 | 1019.3 |
| 20260502105055 | 10 | 337 | 4.8 | 11.3 | 0.00 | 0.00 | 0.00 | 93 | 1019.2 |
| 20260502104556 | 10 | 342 | 6.4 | 12.9 | 0.00 | 0.00 | 0.00 | 93 | 1019.0 |
| 20260502104056 | 10 | 6 | 8.0 | 14.5 | 0.00 | 0.00 | 0.00 | 93 | 1018.8 |
| 20260502103556 | 10 | 11 | 9.7 | 16.1 | 0.00 | 0.00 | 0.00 | 94 | 1018.6 |
| 20260502103108 | 10 | 359 | 9.7 | 16.1 | 0.00 | 0.00 | 0.00 | 94 | 1018.4 |
| 20260502102556 | 10 | 30 | 8.0 | 12.9 | 0.00 | 0.00 | 0.00 | 94 | 1018.4 |
| 20260502102056 | 10 | 355 | 9.7 | 12.9 | 0.00 | 0.00 | 0.00 | 94 | 1018.3 |
| 20260502101610 | 10 | 27 | 8.0 | 12.9 | 0.00 | 0.00 | 0.00 | 94 | 1018.2 |
| 20260502101054 | 10 | 10 | 8.0 | 12.9 | 0.00 | 0.00 | 0.00 | 94 | 1018.2 |
| 20260502100555 | 10 | 13 | 9.7 | 12.9 | 0.00 | 0.00 | 0.00 | 94 | 1018.2 |
| 20260502091051 | 10 | 20 | 9.7 | 16.1 | 0.00 | 0.00 | 0.00 | 94 | 1017.7 |
| 20260502090558 | 10 | 6 | 11.3 | 16.1 | 0.00 | 0.00 | 0.00 | 94 | 1017.6 |
| 20260502090104 | 10 | 6 | 9.7 | 12.9 | 0.00 | 0.00 | 0.00 | 94 | 1017.5 |
| 20260502071054 | 11 | 14 | 11.3 | 14.5 | 0.00 | 0.00 | 0.00 | 93 | 1017.0 |
| 20260502070555 | 11 | 17 | 9.7 | 20.9 | 0.00 | 0.00 | 0.00 | 93 | 1017.1 |
| 20260502070057 | 11 | 343 | 9.7 | 22.5 | 0.00 | 0.00 | 0.00 | 93 | 1017.1 |
| 20260502065555 | 11 | 9 | 12.9 | 24.1 | 0.00 | 0.00 | 0.00 | 92 | 1017.3 |
| 20260502065052 | 11 | 22 | 16.1 | 24.1 | 0.00 | 0.00 | 0.00 | 92 | 1017.4 |
| 20260502064601 | 11 | 2 | 12.9 | 25.7 | 0.00 | 0.00 | 0.00 | 92 | 1017.4 |
| 20260502064055 | 11 | 2 | 11.3 | 25.7 | 0.00 | 0.00 | 0.00 | 92 | 1017.3 |
| 20260502063552 | 11 | 18 | 16.1 | 25.7 | 0.00 | 0.00 | 0.00 | 91 | 1017.3 |
| 20260502063059 | 11 | 30 | 14.5 | 24.1 | 0.00 | 0.00 | 0.00 | 92 | 1017.3 |
| 20260502062552 | 11 | 23 | 14.5 | 25.7 | 0.00 | 0.00 | 0.00 | 92 | 1017.3 |
| 20260502062052 | 11 | 46 | 16.1 | 25.7 | 0.00 | 0.00 | 0.00 | 92 | 1017.4 |
| 20260502061555 | 11 | 27 | 14.5 | 24.1 | 0.00 | 0.00 | 0.00 | 92 | 1017.4 |
| 20260502061052 | 11 | 12 | 16.1 | 24.1 | 0.00 | 0.00 | 0.00 | 91 | 1017.4 |
| 20260502060552 | 11 | 28 | 14.5 | 22.5 | 0.00 | 0.00 | 0.00 | 92 | 1017.4 |
| 20260502060055 | 12 | 24 | 16.1 | 22.5 | 0.00 | 0.00 | 0.00 | 92 | 1017.4 |
| 20260502055555 | 12 | 29 | 16.1 | 22.5 | 0.00 | 0.00 | 0.00 | 92 | 1017.4 |
| 20260502055052 | 12 | 25 | 12.9 | 24.1 | 0.00 | 0.00 | 0.00 | 92 | 1017.4 |
| 20260502054602 | 12 | 33 | 14.5 | 24.1 | 0.00 | 0.00 | 0.00 | 92 | 1017.4 |
| 20260502054053 | 12 | 25 | 12.9 | 19.3 | 0.00 | 0.00 | 0.00 | 92 | 1017.3 |
| 20260502053551 | 12 | 8 | 12.9 | 29.0 | 0.00 | 0.00 | 0.00 | 92 | 1017.5 |
| 20260502053057 | 12 | 29 | 14.5 | 29.0 | 0.00 | 0.00 | 0.00 | 91 | 1017.5 |
| 20260502052551 | 12 | 33 | 20.9 | 29.0 | 0.00 | 0.00 | 0.00 | 90 | 1017.6 |
| 20260502052055 | 12 | 38 | 17.7 | 27.4 | 0.00 | 0.00 | 0.00 | 90 | 1017.6 |
| 20260502051558 | 12 | 356 | 14.5 | 30.6 | 0.00 | 0.00 | 0.00 | 91 | 1017.5 |
| 20260502051052 | 12 | 42 | 17.7 | 30.6 | 0.00 | 0.00 | 0.00 | 91 | 1017.4 |
| 20260502050552 | 12 | 25 | 22.5 | 32.2 | 0.00 | 0.00 | 0.00 | 91 | 1017.4 |
| 20260502050056 | 12 | 24 | 22.5 | 32.2 | 0.00 | 0.00 | 0.00 | 91 | 1017.3 |
| 20260502045557 | 12 | 24 | 20.9 | 32.2 | 0.00 | 0.00 | 0.00 | 91 | 1017.2 |
| 20260502045052 | 12 | 16 | 20.9 | 29.0 | 0.00 | 0.00 | 0.00 | 92 | 1017.2 |
| 20260502044555 | 12 | 23 | 17.7 | 29.0 | 0.00 | 0.00 | 0.00 | 92 | 1017.1 |
| 20260502044051 | 12 | 38 | 20.9 | 29.0 | 0.00 | 0.00 | 0.00 | 92 | 1017.1 |
| 20260502043555 | 12 | 18 | 14.5 | 27.4 | 0.00 | 0.00 | 0.00 | 93 | 1017.1 |
| 20260502043100 | 12 | 356 | 17.7 | 27.4 | 0.00 | 0.00 | 0.00 | 93 | 1016.9 |
| 20260502042552 | 12 | 356 | 17.7 | 25.7 | 0.00 | 0.00 | 0.00 | 93 | 1016.8 |
| 20260502042052 | 12 | 15 | 14.5 | 29.0 | 0.00 | 0.00 | 0.00 | 93 | 1016.7 |
| 20260502041555 | 12 | 25 | 19.3 | 30.6 | 0.00 | 0.00 | 0.00 | 91 | 1016.7 |
| 20260502041055 | 12 | 40 | 22.5 | 30.6 | 0.00 | 0.00 | 0.00 | 91 | 1016.6 |
| 20260502040554 | 12 | 25 | 20.9 | 30.6 | 0.00 | 0.00 | 0.00 | 91 | 1016.6 |
| 20260502040058 | 12 | 17 | 22.5 | 32.2 | 0.00 | 0.00 | 0.00 | 92 | 1016.6 |
| 20260502035556 | 12 | 32 | 24.1 | 32.2 | 0.00 | 0.00 | 0.00 | 92 | 1016.5 |
| 20260502035052 | 12 | 22 | 17.7 | 27.4 | 0.00 | 0.00 | 0.00 | 93 | 1016.6 |
| 20260502034604 | 12 | 27 | 17.7 | 25.7 | 0.00 | 0.00 | 0.00 | 93 | 1016.5 |
| 20260502034052 | 12 | 26 | 19.3 | 27.4 | 0.00 | 0.00 | 0.00 | 92 | 1016.5 |
| 20260502033554 | 12 | 16 | 20.9 | 29.0 | 0.00 | 0.00 | 0.00 | 92 | 1016.6 |
| 20260502033057 | 12 | 13 | 17.7 | 30.6 | 0.00 | 0.00 | 0.00 | 92 | 1016.5 |
| 20260502032552 | 12 | 19 | 19.3 | 30.6 | 0.00 | 0.00 | 0.00 | 92 | 1016.5 |
| 20260502032056 | 12 | 24 | 22.5 | 30.6 | 0.00 | 0.00 | 0.00 | 92 | 1016.4 |
| 20260502031556 | 12 | 25 | 16.1 | 27.4 | 0.00 | 0.00 | 0.00 | 93 | 1016.2 |
| 20260502031052 | 12 | 36 | 19.3 | 29.0 | 0.00 | 0.00 | 0.00 | 92 | 1016.2 |
| 20260502030555 | 12 | 23 | 22.5 | 33.8 | 0.00 | 0.00 | 0.00 | 92 | 1016.1 |
| 20260502030056 | 12 | 24 | 19.3 | 33.8 | 0.00 | 0.00 | 0.00 | 93 | 1016.0 |
| 20260502025554 | 12 | 29 | 22.5 | 33.8 | 0.00 | 0.00 | 0.00 | 93 | 1015.8 |
| 20260502025053 | 12 | 18 | 20.9 | 37.0 | 0.00 | 0.00 | 0.00 | 94 | 1015.8 |
| 20260502024557 | 12 | 36 | 22.5 | 37.0 | 0.00 | 0.00 | 0.00 | 95 | 1015.7 |
| 20260502024054 | 12 | 23 | 22.5 | 37.0 | 0.00 | 0.00 | 0.00 | 95 | 1015.8 |
| 20260502023554 | 12 | 16 | 20.9 | 29.0 | 0.00 | 0.00 | 0.00 | 96 | 1015.8 |
| 20260502023057 | 12 | 8 | 19.3 | 29.0 | 0.00 | 0.00 | 0.00 | 96 | 1015.8 |
| 20260502022556 | 12 | 32 | 19.3 | 29.0 | 0.00 | 0.00 | 0.00 | 97 | 1015.8 |
| 20260502022052 | 12 | 336 | 19.3 | 30.6 | 0.00 | 0.00 | 0.00 | 97 | 1015.7 |
| 20260502021553 | 12 | 334 | 20.9 | 30.6 | 0.00 | 0.00 | 0.00 | 97 | 1015.6 |
| 20260502021052 | 12 | 25 | 19.3 | 29.0 | 0.00 | 0.00 | 0.00 | 97 | 1015.3 |
| 20260502020555 | 12 | 356 | 20.9 | 33.8 | 0.00 | 0.00 | 0.00 | 97 | 1015.2 |
| 20260502020055 | 12 | 333 | 20.9 | 33.8 | 0.00 | 0.00 | 0.00 | 98 | 1015.0 |
| 20260502015555 | 12 | 20 | 20.9 | 32.2 | 0.00 | 0.00 | 0.00 | 98 | 1015.1 |
| 20260502015055 | 12 | 12 | 22.5 | 29.0 | 0.00 | 0.00 | 0.00 | 98 | 1014.9 |
| 20260502014556 | 12 | 31 | 17.7 | 29.0 | 0.00 | 0.00 | 0.00 | 97 | 1014.5 |
| 20260502014054 | 12 | 356 | 22.5 | 30.6 | 0.00 | 0.00 | 0.00 | 97 | 1014.4 |
| 20260502013554 | 13 | 20 | 20.9 | 30.6 | 0.00 | 0.00 | 0.00 | 97 | 1014.2 |
| 20260502013056 | 13 | 15 | 17.7 | 30.6 | 0.00 | 0.00 | 0.00 | 97 | 1014.1 |
| 20260502012552 | 13 | 24 | 20.9 | 29.0 | 0.00 | 0.00 | 0.00 | 97 | 1013.8 |
| 20260502012056 | 13 | 25 | 19.3 | 29.0 | 0.00 | 0.00 | 0.00 | 97 | 1013.5 |
| 20260502011556 | 13 | 4 | 22.5 | 33.8 | 0.00 | 0.00 | 0.00 | 97 | 1013.4 |
| 20260502011052 | 13 | 342 | 20.9 | 35.4 | 0.00 | 0.00 | 0.00 | 97 | 1013.5 |
| 20260502010555 | 13 | 12 | 22.5 | 35.4 | 0.00 | 0.00 | 0.00 | 97 | 1013.4 |
| 20260502010054 | 13 | 27 | 24.1 | 35.4 | 0.00 | 0.00 | 0.00 | 97 | 1013.4 |
| 20260502005556 | 13 | 18 | 24.1 | 35.4 | 0.00 | 0.00 | 0.00 | 97 | 1013.2 |
| 20260502005052 | 13 | 10 | 25.7 | 35.4 | 0.00 | 0.00 | 0.00 | 97 | 1013.2 |
| 20260502004608 | 13 | 3 | 24.1 | 33.8 | 0.00 | 0.00 | 0.00 | 97 | 1013.5 |
| 20260502004057 | 13 | 32 | 22.5 | 32.2 | 0.00 | 0.00 | 0.00 | 98 | 1013.5 |
| 20260502003555 | 13 | 15 | 22.5 | 30.6 | 0.00 | 0.00 | 0.00 | 98 | 1013.7 |
| 20260502003055 | 13 | 20 | 17.7 | 29.0 | 0.00 | 0.00 | 0.00 | 98 | 1013.8 |
| 20260502002555 | 13 | 23 | 20.9 | 29.0 | 0.00 | 0.00 | 0.00 | 98 | 1013.7 |
| 20260502002054 | 13 | 39 | 20.9 | 29.0 | 0.00 | 0.00 | 0.00 | 98 | 1013.6 |
| 20260502001554 | 13 | 15 | 20.9 | 30.6 | 0.00 | 0.00 | 0.00 | 98 | 1013.5 |
| 20260502001055 | 13 | 359 | 20.9 | 30.6 | 0.00 | 0.00 | 0.00 | 98 | 1013.7 |
| 20260502000555 | 13 | 10 | 20.9 | 29.0 | 0.00 | 0.00 | 0.00 | 98 | 1013.6 |
| 20260502000101 | 13 | 10 | 17.7 | 25.7 | 0.00 | 0.00 | 0.00 | 98 | 1013.8 |
| 20260501235555 | 13 | 17 | 16.1 | 25.7 | 0.00 | 0.00 | 0.00 | 98 | 1014.1 |
| 20260501235057 | 14 | 4 | 16.1 | 27.4 | 0.00 | 0.00 | 0.00 | 98 | 1013.8 |
| 20260501234556 | 14 | 26 | 17.7 | 32.2 | 0.00 | 0.00 | 0.00 | 98 | 1013.4 |
| 20260501234052 | 14 | 16 | 20.9 | 32.2 | 0.00 | 0.00 | 0.00 | 98 | 1013.3 |
| 20260501233559 | 14 | 9 | 22.5 | 32.2 | 0.00 | 0.00 | 0.00 | 98 | 1012.9 |
| 20260501233058 | 14 | 34 | 14.5 | 25.7 | 0.00 | 0.00 | 0.00 | 98 | 1012.9 |
| 20260501232555 | 14 | 344 | 14.5 | 29.0 | 0.00 | 0.00 | 0.00 | 98 | 1013.2 |
| 20260501232051 | 14 | 343 | 19.3 | 29.0 | 0.00 | 0.00 | 0.00 | 98 | 1013.0 |
| 20260501231555 | 14 | 352 | 16.1 | 24.1 | 0.00 | 0.00 | 0.00 | 98 | 1013.0 |
| 20260501231054 | 14 | 24 | 17.7 | 24.1 | 0.00 | 0.00 | 0.00 | 98 | 1013.0 |
| 20260501230552 | 14 | 14 | 14.5 | 27.4 | 0.00 | 0.00 | 0.00 | 98 | 1012.9 |
| 20260501230055 | 14 | 20 | 16.1 | 27.4 | 0.00 | 0.00 | 0.00 | 98 | 1012.9 |
| 20260501225552 | 14 | 355 | 17.7 | 29.0 | 0.00 | 0.00 | 0.00 | 98 | 1013.2 |
| 20260501225052 | 14 | 8 | 16.1 | 29.0 | 0.00 | 0.00 | 0.00 | 98 | 1013.2 |
| 20260501224554 | 14 | 350 | 20.9 | 29.0 | 0.00 | 0.00 | 0.00 | 98 | 1012.9 |
| 20260501224054 | 14 | 340 | 19.3 | 32.2 | 0.00 | 0.00 | 0.00 | 98 | 1012.7 |
| 20260501223554 | 14 | 336 | 19.3 | 32.2 | 0.00 | 0.00 | 0.00 | 98 | 1012.3 |
| 20260501223108 | 15 | 359 | 17.7 | 25.7 | 0.00 | 0.00 | 0.00 | 98 | 1011.9 |
| 20260501222556 | 15 | 15 | 16.1 | 27.4 | 0.00 | 0.00 | 0.00 | 98 | 1012.0 |
| 20260501222056 | 14 | 323 | 16.1 | 27.4 | 0.00 | 0.00 | 0.00 | 98 | 1012.2 |
| 20260501221557 | 15 | 347 | 16.1 | 27.4 | 0.00 | 0.00 | 0.00 | 98 | 1011.8 |
| 20260501221056 | 14 | 324 | 14.5 | 20.9 | 0.00 | 0.00 | 0.00 | 98 | 1012.0 |
| 20260501220552 | 15 | 340 | 12.9 | 25.7 | 0.00 | 0.00 | 0.00 | 98 | 1012.2 |
| 20260501220104 | 15 | 340 | 16.1 | 27.4 | 0.00 | 0.00 | 0.00 | 98 | 1011.8 |
| 20260501215552 | 14 | 338 | 19.3 | 29.0 | 0.00 | 0.00 | 0.00 | 98 | 1010.9 |
| 20260501215055 | 14 | 63 | 22.5 | 32.2 | 0.00 | 0.00 | 0.00 | 98 | 1009.7 |
| 20260501214555 | 14 | 8 | 20.9 | 32.2 | 0.00 | 0.00 | 0.00 | 98 | 1009.6 |
| 20260501214055 | 14 | 59 | 22.5 | 33.8 | 0.00 | 0.00 | 0.00 | 97 | 1009.8 |
| 20260501213551 | 15 | 352 | 20.9 | 35.4 | 0.00 | 0.00 | 0.00 | 98 | 1010.1 |
| 20260501213111 | 14 | 25 | 22.5 | 35.4 | 0.00 | 0.00 | 0.00 | 98 | 1010.1 |
| 20260501212552 | 15 | 18 | 20.9 | 30.6 | 0.00 | 0.00 | 0.00 | 98 | 1010.1 |
| 20260501212402 | 15 | 31 | 19.3 | 29.0 | 0.00 | 0.00 | 0.00 | 98 | 1010.2 |
| 20260501184056 | 16 | 63 | 14.5 | 22.5 | 0.00 | 0.00 | 0.00 | 98 | 1008.9 |
| 20260501183556 | 16 | 24 | 12.9 | 20.9 | 0.00 | 0.00 | 0.00 | 98 | 1010.2 |
| 20260501183059 | 16 | 41 | 12.9 | 20.9 | 0.00 | 0.00 | 0.00 | 98 | 1010.2 |
| 20260501182555 | 16 | 51 | 14.5 | 24.1 | 0.00 | 0.00 | 0.00 | 98 | 1010.2 |
| 20260501182052 | 16 | 33 | 14.5 | 24.1 | 0.00 | 0.00 | 0.00 | 98 | 1010.3 |
| 20260501181555 | 16 | 40 | 16.1 | 20.9 | 0.00 | 0.00 | 0.00 | 98 | 1010.2 |
| 20260501181055 | 16 | 29 | 11.3 | 20.9 | 0.00 | 0.00 | 0.00 | 98 | 1010.2 |
| 20260501180555 | 15 | 37 | 14.5 | 20.9 | 0.00 | 0.00 | 0.00 | 98 | 1010.1 |
| 20260501180057 | 16 | 46 | 12.9 | 20.9 | 0.00 | 0.00 | 0.00 | 98 | 1010.1 |
| 20260501175555 | 15 | 53 | 14.5 | 25.7 | 0.00 | 0.00 | 0.00 | 98 | 1009.9 |
| 20260501175054 | 15 | 56 | 14.5 | 25.7 | 0.00 | 0.00 | 0.00 | 98 | 1009.9 |
| 20260501174638 | 16 | 54 | 16.1 | 25.7 | 0.00 | 0.00 | 0.00 | 98 | 1009.9 |
| 20260501174054 | 16 | 59 | 16.1 | 25.7 | 0.00 | 0.00 | 0.00 | 98 | 1010.0 |
| 20260501173558 | 16 | 45 | 16.1 | 27.4 | 0.00 | 0.00 | 0.00 | 98 | 1010.3 |
| 20260501173103 | 16 | 34 | 16.1 | 27.4 | 0.00 | 0.00 | 0.00 | 98 | 1010.3 |
| 20260501172559 | 16 | 17 | 17.7 | 29.0 | 0.00 | 0.00 | 0.00 | 98 | 1010.1 |
| 20260501172052 | 16 | 21 | 14.5 | 30.6 | 0.00 | 0.00 | 0.00 | 98 | 1010.1 |
| 20260501171555 | 16 | 11 | 20.9 | 35.4 | 0.00 | 0.00 | 0.00 | 98 | 1009.7 |
| 20260501171055 | 15 | 27 | 22.5 | 35.4 | 0.00 | 0.00 | 0.00 | 98 | 1009.3 |
| 20260501170558 | 15 | 34 | 22.5 | 35.4 | 0.00 | 0.00 | 0.00 | 98 | 1009.4 |
| 20260501165554 | 15 | 48 | 16.1 | 30.6 | 0.00 | 0.00 | 0.00 | 98 | 1010.2 |
| 20260501165056 | 15 | 46 | 16.1 | 35.4 | 0.00 | 0.00 | 0.00 | 98 | 1010.2 |
| 20260501164608 | 15 | 48 | 22.5 | 35.4 | 0.00 | 0.00 | 0.00 | 98 | 1010.0 |
| 20260501164055 | 15 | 43 | 24.1 | 35.4 | 0.00 | 0.00 | 0.00 | 98 | 1009.4 |
| 20260501163555 | 15 | 45 | 16.1 | 24.1 | 0.00 | 0.00 | 0.00 | 98 | 1012.3 |
| 20260501163106 | 15 | 32 | 16.1 | 25.7 | 0.00 | 0.00 | 0.00 | 98 | 1012.9 |
| 20260501162557 | 15 | 14 | 16.1 | 33.8 | 0.00 | 0.00 | 0.00 | 98 | 1012.8 |
| 20260501162058 | 15 | 347 | 20.9 | 33.8 | 0.00 | 0.00 | 0.00 | 98 | 1012.8 |
| 20260501161559 | 15 | 25 | 17.7 | 22.5 | 0.00 | 0.00 | 0.00 | 98 | 1012.6 |
| 20260501161051 | 15 | 60 | 4.8 | 17.7 | 0.00 | 0.00 | 0.00 | 98 | 1013.3 |
| 20260501160551 | 15 | 81 | 9.7 | 17.7 | 0.00 | 0.00 | 0.00 | 98 | 1013.1 |
| 20260501160101 | 15 | 55 | 12.9 | 17.7 | 0.00 | 0.00 | 0.00 | 98 | 1012.4 |
| 20260501155559 | 15 | 35 | 8.0 | 20.9 | 0.00 | 0.00 | 0.00 | 98 | 1012.4 |
| 20260501155055 | 15 | 43 | 14.5 | 20.9 | 0.00 | 0.00 | 0.00 | 98 | 1012.6 |
| 20260501154620 | 15 | 42 | 14.5 | 20.9 | 0.00 | 0.00 | 0.00 | 98 | 1012.3 |
| 20260501154055 | 15 | 40 | 12.9 | 19.3 | 0.00 | 0.00 | 0.00 | 98 | 1012.4 |
| 20260501153555 | 15 | 39 | 6.4 | 29.0 | 0.00 | 0.00 | 0.00 | 98 | 1013.1 |
| 20260501153058 | 15 | 20 | 14.5 | 29.0 | 0.00 | 0.00 | 0.00 | 98 | 1012.8 |
| 20260501152555 | 15 | 335 | 20.9 | 30.6 | 0.00 | 0.00 | 0.00 | 98 | 1012.0 |
| 20260501152055 | 15 | 42 | 19.3 | 30.6 | 0.00 | 0.00 | 0.00 | 98 | 1011.8 |
| 20260501151612 | 15 | 46 | 19.3 | 27.4 | 0.00 | 0.00 | 0.00 | 98 | 1012.1 |
| 20260501151058 | 15 | 324 | 17.7 | 27.4 | 0.00 | 0.00 | 0.00 | 98 | 1013.1 |
| 20260501150555 | 15 | 325 | 16.1 | 32.2 | 0.00 | 0.00 | 0.00 | 98 | 1013.2 |
| 20260501145559 | 15 | 335 | 22.5 | 29.0 | 0.00 | 0.00 | 0.00 | 98 | 1012.6 |
| 20260501145052 | 15 | 17 | 20.9 | 32.2 | 0.00 | 0.00 | 0.00 | 98 | 1012.8 |
| 20260501144559 | 15 | 347 | 20.9 | 32.2 | 0.00 | 0.00 | 0.00 | 98 | 1012.7 |
| 20260501144051 | 15 | 346 | 17.7 | 27.4 | 0.00 | 0.00 | 0.00 | 98 | 1012.6 |
| 20260501143559 | 15 | 315 | 17.7 | 27.4 | 0.00 | 0.00 | 0.00 | 98 | 1013.1 |
| 20260501143057 | 16 | 318 | 16.1 | 24.1 | 0.00 | 0.00 | 0.00 | 98 | 1013.4 |
| 20260501142555 | 15 | 322 | 16.1 | 24.1 | 0.00 | 0.00 | 0.00 | 98 | 1013.3 |
| 20260501142058 | 15 | 337 | 16.1 | 24.1 | 0.00 | 0.00 | 0.00 | 98 | 1012.3 |
| 20260501141557 | 15 | 27 | 17.7 | 24.1 | 0.00 | 0.00 | 0.00 | 98 | 1011.9 |
| 20260501141057 | 15 | 32 | 12.9 | 17.7 | 0.00 | 0.00 | 0.00 | 98 | 1011.7 |
| 20260501140556 | 15 | 43 | 12.9 | 17.7 | 0.00 | 0.00 | 0.00 | 98 | 1011.5 |
| 20260501140056 | 15 | 71 | 11.3 | 20.9 | 0.00 | 0.00 | 0.00 | 98 | 1011.7 |
| 20260501135558 | 15 | 61 | 12.9 | 22.5 | 0.00 | 0.00 | 0.00 | 98 | 1011.7 |
| 20260501135055 | 15 | 40 | 14.5 | 22.5 | 0.00 | 0.00 | 0.00 | 98 | 1011.6 |
| 20260501134609 | 15 | 41 | 12.9 | 20.9 | 0.00 | 0.00 | 0.00 | 98 | 1011.6 |
| 20260501134054 | 15 | 23 | 14.5 | 20.9 | 0.00 | 0.00 | 0.00 | 98 | 1012.0 |
| 20260501133551 | 15 | 45 | 11.3 | 17.7 | 0.00 | 0.00 | 0.00 | 98 | 1012.1 |